Spencer, IA

8:04 AM CST on November 20, 2017 (GMT -0600)
Spencer Municipal

Weather History for KSPW - January, 2014

Change the Weather History Date:

Thursday, January 23, 2014

  Actual Average Record
Temperature  
Mean Temperature -3 °F -  
Max Temperature 10 °F 28 °F 58 °F (1981)
Min Temperature -13 °F 8 °F -18 °F (2011)
Degree Days  
Heating Degree Days 68    
Moisture  
Dew Point -11 °F    
Average Humidity 68    
Maximum Humidity 76    
Minimum Humidity 51    
Precipitation  
Precipitation 0.00 in - - ()
Sea Level Pressure  
Sea Level Pressure 30.71 in    
Wind  
Wind Speed 14 mph (WNW)    
Max Wind Speed 21 mph    
Max Gust Speed 23 mph    
Visibility 10 miles    
Events      
Averages and records for this station are not official NWS values.
T = Trace of Precipitation, MM = Missing Value Source: NWS Daily Summary

Daily Weather History Graph

Daily Weather History Graph

Search for Another Location

Airport or City:

Trip Planner

Search our weather history database for the weather conditions in past years. The results will help you decide how hot, cold, wet, or windy it might be!

Date:

Astronomy

Jan. 23, 2014 Rise Set
Actual Time 7:44 AM CST 5:21 PM CST
Civil Twilight 7:13 AM CST 5:52 PM CST
Nautical Twilight 6:39 AM CST 6:26 PM CST
Astronomical Twilight 6:05 AM CST 7:00 PM CST
Moon 12:05 AM CST (1/23) 11:07 AM CST (1/23)
Length of Visible Light 10h 38m
Length of Day
9h 36m
Waning Gibbous, 55% of the Moon is Illuminated
Jan 23
Waning Gibbous
Jan 23
Last Quarter
Jan 30
New
Feb 6
First Quarter
Feb 14
Full

Hourly Weather History & Observations

Time (CST) Temp. Windchill Dew Point Humidity Pressure Visibility Wind Dir Wind Speed Gust Speed Precip Events Conditions
12:53 AM -8.0 °F -32.8 °F -15.0 °F 71% 30.67 in 10.0 mi NNW 20.7 mph - N/A   Overcast
1:53 AM -9.0 °F -32.4 °F -16.1 °F 71% 30.68 in 10.0 mi NNW 17.3 mph - N/A   Overcast
2:53 AM -9.0 °F -32.4 °F -16.1 °F 71% 30.70 in 10.0 mi NNW 17.3 mph - N/A   Overcast
3:53 AM -9.0 °F -30.9 °F -17.0 °F 68% 30.72 in 10.0 mi NNW 15.0 mph - N/A   Overcast
4:53 AM -9.9 °F -27.5 °F -17.0 °F 71% 30.75 in 10.0 mi NW 9.2 mph - N/A   Overcast
5:53 AM -9.9 °F -30.5 °F -17.0 °F 71% 30.78 in 9.0 mi NNW 12.7 mph - N/A   Overcast
6:53 AM -11.0 °F -28.8 °F -18.0 °F 71% 30.81 in 7.0 mi NNW 9.2 mph - N/A   Overcast
7:37 AM -13.0 °F -32.4 °F -20.0 °F 71% 30.69 in 10.0 mi NW 10.4 mph - N/A   Scattered Clouds
7:53 AM -13.0 °F -32.4 °F -18.9 °F 75% 30.83 in 10.0 mi NW 10.4 mph - N/A   Clear
8:53 AM -11.0 °F -29.9 °F -18.0 °F 71% 30.84 in 10.0 mi WNW 10.4 mph - N/A   Clear
9:53 AM -8.0 °F -28.8 °F -16.1 °F 68% 30.85 in 10.0 mi NW 13.8 mph - N/A   Clear
10:32 AM -6.0 °F -27.0 °F -14.1 °F 68% 30.74 in 10.0 mi NW 15.0 mph - N/A   Scattered Clouds
10:53 AM -5.1 °F -23.5 °F -13.0 °F 69% 30.87 in 10.0 mi NW 11.5 mph - N/A   Mostly Cloudy
11:10 AM -4.0 °F -23.7 °F -11.9 °F 69% 30.73 in 10.0 mi NW 13.8 mph - N/A   Scattered Clouds
11:40 AM -2.0 °F -20.5 °F -9.9 °F 69% 30.73 in 8.0 mi WNW 12.7 mph - N/A   Mostly Cloudy
11:53 AM -2.0 °F -20.5 °F -9.0 °F 72% 30.85 in 8.0 mi NW 12.7 mph - N/A   Mostly Cloudy
12:53 PM -0.0 °F -18.0 °F -7.1 °F 72% 30.82 in 10.0 mi WNW 12.7 mph - N/A   Mostly Cloudy
1:06 PM 1.0 °F -14.9 °F -7.1 °F 69% 30.69 in 10.0 mi WNW 10.4 mph - N/A   Scattered Clouds
1:53 PM 3.0 °F -14.1 °F -5.1 °F 69% 30.79 in 10.0 mi WNW 12.7 mph - N/A   Partly Cloudy
2:53 PM 5.0 °F -10.0 °F -5.1 °F 63% 30.77 in 10.0 mi WNW 10.4 mph - N/A   Clear
3:53 PM 6.1 °F -11.6 °F -5.1 °F 60% 30.76 in 10.0 mi WNW 15.0 mph - N/A   Clear
4:53 PM 5.0 °F -10.0 °F -5.1 °F 63% 30.73 in 10.0 mi West 10.4 mph - N/A   Clear
5:53 PM -0.0 °F -14.2 °F -7.1 °F 72% 30.70 in 10.0 mi SW 8.1 mph - N/A   Clear
6:53 PM -2.0 °F -16.6 °F -8.0 °F 76% 30.68 in 10.0 mi SSW 8.1 mph - N/A   Clear
7:53 PM -2.9 °F -18.8 °F -9.0 °F 75% 30.63 in 10.0 mi SSW 9.2 mph - N/A   Clear
8:53 PM 1.9 °F -15.5 °F -7.1 °F 66% 30.56 in 10.0 mi SSW 12.7 mph - N/A   Clear
9:53 PM 3.9 °F -13.7 °F -7.1 °F 60% 30.49 in 10.0 mi SSW 13.8 mph - N/A   Clear
10:53 PM 7.0 °F -11.0 °F -6.0 °F 55% 30.43 in 10.0 mi SSW 16.1 mph 23.0 mph N/A   Clear
11:53 PM 10.0 °F -7.6 °F -5.1 °F 51% 30.35 in 10.0 mi SSW 17.3 mph - N/A   Clear